KE2LU Weather Reports


Display with metric or nautical units.
time (UTC)temp
F
wind
direction
speed
MPH
gust
MPH
rain 1hr
in
rain 24hr
in
rain mn
in
humidity
%
barometer
mb
20260509112501 45 155 2.0 7.0 0.00 0.01 0.00 83 1009.2
20260509112002 45 149 1.0 5.0 0.00 0.01 0.00 84 1009.2
20260509105502 44 158 1.0 5.0 0.00 0.02 0.00 84 1009.1
20260509105002 43 165 2.0 8.0 0.00 0.02 0.00 84 1009.1
20260509104502 43 190 2.0 5.0 0.00 0.02 0.00 84 1009.1
20260509104002 43 162 1.0 2.0 0.00 0.02 0.00 84 1009.1
20260509103502 43 150 2.0 3.0 0.00 0.02 0.00 84 1009.1
20260509103002 43 151 1.0 3.0 0.00 0.02 0.00 84 1009.0
20260509102502 43 148 1.0 3.0 0.00 0.02 0.00 83 1009.0
20260509102002 42 153 2.0 5.0 0.00 0.02 0.00 83 1008.9
20260509101502 42 149 1.0 3.0 0.00 0.02 0.00 83 1009.0
20260509101002 42 169 2.0 3.0 0.00 0.02 0.00 83 1009.1
20260509100501 42 155 1.0 3.0 0.00 0.02 0.00 83 1009.1
20260509100002 41 147 1.0 3.0 0.00 0.02 0.00 83 1009.1
20260509095502 41 143 1.0 2.0 0.00 0.02 0.00 83 1009.1
20260509095002 41 162 0.0 2.0 0.00 0.02 0.00 82 1009.1
20260509094502 41 150 0.0 2.0 0.00 0.02 0.00 81 1009.0
20260509094003 41 143 1.0 1.0 0.00 0.02 0.00 81 1009.0
20260509093003 41 160 0.0 1.0 0.00 0.02 0.00 80 1009.1
20260509092502 41 167 0.0 3.0 0.00 0.02 0.00 80 1009.1
20260509092002 41 135 1.0 2.0 0.00 0.02 0.00 80 1009.1
20260509091502 41 147 0.0 2.0 0.00 0.02 0.00 80 1009.2
20260509091002 41 193 1.0 3.0 0.00 0.02 0.00 80 1009.2
20260509090502 41 153 1.0 2.0 0.00 0.02 0.00 80 1009.2
20260509090002 42 141 0.0 2.0 0.00 0.02 0.00 80 1009.1
20260509085002 42 193 1.0 5.0 0.00 0.02 0.00 79 1009.2
20260509084502 42 181 1.0 3.0 0.00 0.02 0.00 80 1009.3
20260509084002 42 144 1.0 3.0 0.00 0.02 0.00 80 1009.4
20260509083502 41 144 1.0 3.0 0.00 0.02 0.00 80 1009.5
20260509083003 41 128 1.0 2.0 0.00 0.02 0.00 81 1009.6
20260509082502 41 184 1.0 3.0 0.00 0.02 0.00 81 1009.6
20260509082002 41 158 0.0 2.0 0.00 0.02 0.00 81 1009.6
20260509081502 40 149 1.0 5.0 0.00 0.03 0.00 82 1009.7
20260509081003 40 178 1.0 2.0 0.00 0.03 0.00 82 1009.7
20260509080502 40 141 1.0 1.0 0.00 0.03 0.00 82 1009.8
20260509080002 40 155 0.0 3.0 0.00 0.03 0.00 81 1009.8
20260509075502 40 188 0.0 1.0 0.00 0.03 0.00 81 1009.9
20260509075002 40 147 0.0 0.0 0.00 0.03 0.00 81 1009.8
20260509074502 41 147 0.0 1.0 0.00 0.03 0.00 80 1009.9
20260509074002 41 141 0.0 0.0 0.00 0.03 0.00 80 1009.9
20260509073002 41 174 0.0 0.0 0.00 0.03 0.00 79 1010.1
20260509072502 41 174 0.0 2.0 0.00 0.03 0.00 79 1010.1
20260509072002 41 219 1.0 3.0 0.00 0.03 0.00 80 1010.2
20260509071002 41 140 1.0 3.0 0.00 0.03 0.00 81 1010.2
20260509070503 40 183 1.0 3.0 0.00 0.03 0.00 82 1010.3
20260509070002 40 160 0.0 0.0 0.00 0.03 0.00 82 1010.4
20260509065502 40 147 0.0 0.0 0.00 0.03 0.00 81 1010.4
20260509065003 40 146 0.0 0.0 0.00 0.03 0.00 81 1010.4
20260509064502 40 146 0.0 0.0 0.00 0.03 0.00 81 1010.4
20260509063502 40 146 0.0 0.0 0.00 0.03 0.00 82 1010.5
20260509062502 40 152 0.0 0.0 0.00 0.03 0.00 82 1010.7
20260509062002 40 146 0.0 0.0 0.00 0.03 0.00 83 1010.6
20260509061502 39 146 0.0 1.0 0.00 0.03 0.00 83 1010.7
20260509061002 39 151 0.0 0.0 0.00 0.03 0.00 83 1010.9
20260509060502 39 153 0.0 1.0 0.00 0.03 0.00 83 1010.9
20260509060003 39 148 0.0 0.0 0.00 0.03 0.00 82 1010.9
20260509055502 40 148 0.0 0.0 0.00 0.03 0.00 82 1011.0
20260509054502 40 148 0.0 0.0 0.00 0.03 0.00 81 1011.0
20260509054003 40 148 0.0 0.0 0.00 0.03 0.00 81 1011.2
20260509053502 40 148 0.0 0.0 0.00 0.03 0.00 81 1011.2
20260509053003 40 148 0.0 0.0 0.00 0.03 0.00 81 1011.2
20260509052503 41 148 0.0 0.0 0.00 0.03 0.00 81 1011.2
20260509052002 41 148 0.0 0.0 0.00 0.03 0.00 81 1011.3
20260509051503 41 148 0.0 0.0 0.00 0.03 0.00 81 1011.3
20260509051002 41 148 0.0 0.0 0.00 0.03 0.00 82 1011.3
20260509050503 41 156 0.0 0.0 0.00 0.03 0.00 83 1011.3
20260509045503 40 147 0.0 1.0 0.00 0.03 0.00 83 1011.4
20260509045002 39 147 0.0 1.0 0.00 0.03 0.00 84 1011.3
20260509044503 39 152 0.0 0.0 0.00 0.03 0.00 83 1011.4
20260509044002 39 152 0.0 0.0 0.00 0.03 0.00 84 1011.4
20260509043503 39 152 0.0 0.0 0.00 0.03 0.00 84 1011.5
20260509043003 40 152 0.0 0.0 0.00 0.03 0.00 83 1011.6
20260509042003 40 152 0.0 0.0 0.00 0.03 0.00 83 1011.6
20260509041502 40 152 0.0 0.0 0.00 0.03 0.00 83 1011.6
20260509041002 40 152 0.0 0.0 0.00 0.03 0.00 82 1011.6
20260509040503 40 152 0.0 0.0 0.00 0.03 0.00 83 1011.7
20260509040003 40 152 0.0 1.0 0.00 0.03 0.00 82 1011.7
20260509035502 40 143 0.0 0.0 0.00 0.03 0.03 82 1011.7
20260509035003 40 143 0.0 1.0 0.00 0.03 0.03 82 1011.7
20260509034502 41 143 0.0 0.0 0.00 0.03 0.03 81 1011.8
20260509034003 41 143 0.0 0.0 0.00 0.03 0.03 81 1011.8
20260509033503 41 143 0.0 0.0 0.00 0.03 0.03 80 1011.8
20260509032002 42 143 0.0 1.0 0.00 0.03 0.03 79 1011.8
20260509031503 42 149 0.0 2.0 0.00 0.03 0.03 78 1011.8
20260509031002 42 137 1.0 1.0 0.00 0.03 0.03 78 1011.8
20260509030003 42 155 0.0 1.0 0.00 0.03 0.03 79 1011.9
20260509025502 42 155 0.0 2.0 0.00 0.03 0.03 80 1011.9
20260509025003 42 137 0.0 1.0 0.00 0.03 0.03 80 1011.8
20260509024003 42 139 1.0 2.0 0.00 0.03 0.03 80 1011.9
20260509023502 42 167 1.0 3.0 0.00 0.03 0.03 80 1011.9
20260509022503 42 153 0.0 1.0 0.00 0.03 0.03 82 1011.9
20260509022003 42 163 0.0 2.0 0.00 0.03 0.03 82 1011.9
20260509021502 41 152 0.0 1.0 0.00 0.03 0.03 83 1012.0
20260509021003 41 147 0.0 0.0 0.00 0.03 0.03 83 1012.0
20260509020503 41 155 0.0 0.0 0.00 0.03 0.03 82 1012.0
20260509020003 41 158 0.0 0.0 0.00 0.03 0.03 81 1012.1
20260509015503 41 158 0.0 0.0 0.00 0.03 0.03 80 1012.1
20260509015003 42 158 0.0 0.0 0.00 0.03 0.03 80 1012.0
20260509013502 43 158 0.0 0.0 0.00 0.03 0.03 78 1012.1
20260509013003 43 158 0.0 0.0 0.00 0.03 0.03 78 1012.1
20260509012503 43 158 0.0 0.0 0.00 0.03 0.03 76 1011.9
20260509012003 44 151 0.0 0.0 0.00 0.03 0.03 76 1011.9
20260509010503 44 128 0.0 0.0 0.00 0.03 0.03 74 1011.5
20260509010003 44 128 0.0 0.0 0.00 0.03 0.03 74 1011.4
20260509005504 44 83 0.0 1.0 0.00 0.03 0.03 73 1011.3
20260509004502 45 83 0.0 0.0 0.00 0.03 0.03 71 1011.2
20260509004003 46 83 0.0 0.0 0.00 0.03 0.03 69 1011.2
20260509003503 46 83 0.0 0.0 0.00 0.03 0.03 68 1011.2
20260509003002 47 83 0.0 0.0 0.00 0.03 0.03 68 1011.1
20260509002503 47 83 0.0 0.0 0.00 0.03 0.03 67 1011.1
20260509002003 48 82 0.0 0.0 0.00 0.03 0.03 66 1011.1
20260509001503 48 82 0.0 0.0 0.00 0.03 0.03 65 1011.1
20260509001003 49 82 0.0 0.0 0.00 0.03 0.03 64 1011.1
20260509000503 49 83 0.0 1.0 0.00 0.03 0.03 63 1011.1
20260509000004 49 78 0.0 1.0 0.00 0.03 0.03 63 1011.0
20260508235503 50 78 1.0 2.0 0.00 0.03 0.03 62 1011.1
20260508235003 50 107 0.0 1.0 0.00 0.03 0.03 63 1011.0
20260508234003 51 113 0.0 2.0 0.00 0.03 0.03 60 1010.9
20260508233503 51 48 0.0 3.0 0.00 0.03 0.03 59 1010.9
20260508233003 52 39 2.0 3.0 0.00 0.03 0.03 58 1010.8
20260508232503 52 63 0.0 2.0 0.00 0.03 0.03 58 1010.8
20260508232003 53 51 1.0 2.0 0.00 0.03 0.03 56 1010.8
20260508231003 53 343 2.0 3.0 0.00 0.03 0.03 56 1010.9
20260508230503 53 6 1.0 3.0 0.00 0.03 0.03 57 1010.8
20260508225503 54 349 3.0 5.0 0.00 0.03 0.03 55 1010.9
20260508224504 54 23 1.0 3.0 0.00 0.03 0.03 57 1010.8
20260508224003 55 16 3.0 5.0 0.00 0.03 0.03 56 1010.9
20260508223503 55 342 4.0 6.0 0.00 0.03 0.03 53 1010.8
20260508223003 56 329 1.0 5.0 0.00 0.03 0.03 54 1010.9
20260508222503 56 322 2.0 5.0 0.00 0.03 0.03 54 1010.9
20260508222003 56 343 3.0 7.0 0.00 0.03 0.03 55 1010.9
20260508221503 56 33 2.0 9.0 0.00 0.03 0.03 54 1010.9
20260508221003 56 348 3.0 5.0 0.00 0.03 0.03 53 1010.9
20260508220003 56 48 3.0 3.0 0.00 0.03 0.03 54 1011.1
20260508215503 56 58 1.0 3.0 0.00 0.03 0.03 52 1011.1
20260508215003 57 73 2.0 3.0 0.00 0.03 0.03 52 1011.1
20260508214503 57 36 1.0 3.0 0.00 0.03 0.03 53 1011.1
20260508214003 56 282 0.0 2.0 0.00 0.03 0.03 53 1011.1
20260508213003 55 346 2.0 3.0 0.00 0.03 0.03 53 1011.2
20260508212503 56 99 2.0 3.0 0.00 0.03 0.03 54 1011.3
20260508212003 55 76 3.0 5.0 0.00 0.03 0.03 55 1011.3
20260508211504 55 77 1.0 3.0 0.00 0.03 0.03 55 1011.2
20260508211003 55 4 2.0 6.0 0.00 0.03 0.03 56 1011.2
20260508210503 54 4 2.0 3.0 0.00 0.03 0.03 58 1011.3
20260508210003 54 88 2.0 5.0 0.00 0.03 0.03 56 1011.4
20260508205503 54 31 3.0 6.0 0.00 0.03 0.03 58 1011.5
20260508205004 54 33 3.0 6.0 0.00 0.03 0.03 56 1011.4
20260508204003 54 336 3.0 8.0 0.00 0.03 0.03 58 1011.6
20260508203503 53 320 3.0 6.0 0.00 0.03 0.03 56 1011.6
20260508202503 54 359 3.0 7.0 0.00 0.04 0.03 61 1011.7
20260508202003 53 314 4.0 8.0 0.00 0.04 0.03 62 1011.8
20260508201503 53 340 6.0 8.0 0.00 0.04 0.03 61 1011.8
20260508201003 53 349 5.0 8.0 0.00 0.05 0.03 60 1011.8
20260508200503 53 348 5.0 7.0 0.00 0.05 0.03 61 1011.8
20260508200004 53 313 3.0 9.0 0.00 0.05 0.03 62 1011.8
20260508195004 54 6 3.0 7.0 0.00 0.05 0.03 63 1011.9
20260508194503 54 291 2.0 5.0 0.00 0.05 0.03 64 1012.0
20260508193503 53 351 2.0 3.0 0.00 0.05 0.03 63 1012.0
20260508192503 53 336 3.0 9.0 0.00 0.05 0.03 60 1012.1
20260508192004 53 325 3.0 7.0 0.00 0.05 0.03 63 1012.2
20260508191503 53 338 3.0 5.0 0.00 0.05 0.03 66 1012.2
20260508191003 53 334 3.0 9.0 0.00 0.05 0.03 60 1012.2
20260508190504 53 26 7.0 9.0 0.00 0.05 0.03 62 1012.1
20260508190003 53 345 2.0 6.0 0.00 0.05 0.03 57 1012.0
20260508185504 53 37 6.0 12.0 0.00 0.05 0.03 62 1012.0
20260508185004 53 357 5.0 10.0 0.00 0.05 0.03 66 1012.2
20260508184503 52 70 3.0 9.0 0.00 0.05 0.03 66 1012.2
20260508184003 52 37 3.0 8.0 0.00 0.05 0.03 64 1012.2
20260508183503 53 1 4.0 6.0 0.00 0.05 0.03 63 1012.2
20260508182503 55 17 2.0 7.0 0.00 0.05 0.03 55 1012.2
20260508182004 54 198 1.0 6.0 0.00 0.05 0.03 52 1012.2
20260508181503 54 141 2.0 8.0 0.00 0.05 0.03 52 1012.3
20260508180504 53 300 2.0 8.0 0.00 0.05 0.03 54 1012.4
20260508180003 53 162 1.0 6.0 0.00 0.05 0.03 55 1012.4
20260508175504 53 323 4.0 8.0 0.00 0.05 0.03 51 1012.4
20260508175004 54 295 4.0 9.0 0.00 0.05 0.03 54 1012.4
20260508174503 54 194 1.0 3.0 0.00 0.05 0.03 58 1012.5
20260508174004 54 60 2.0 6.0 0.00 0.05 0.03 55 1012.5
20260508173503 54 271 3.0 8.0 0.00 0.05 0.03 62 1012.6
20260508173003 53 201 2.0 9.0 0.00 0.05 0.03 62 1012.5
20260508172503 53 277 2.0 6.0 0.00 0.05 0.03 61 1012.6
20260508172004 53 122 2.0 3.0 0.00 0.05 0.03 61 1012.7
20260508171503 52 268 0.0 3.0 0.00 0.05 0.03 63 1012.8
20260508171004 52 143 2.0 6.0 0.00 0.05 0.03 60 1012.9
20260508170503 52 203 2.0 7.0 0.00 0.05 0.03 63 1012.9
20260508170003 52 277 3.0 9.0 0.00 0.05 0.03 62 1012.9
20260508165503 52 219 1.0 5.0 0.00 0.05 0.03 66 1013.0
20260508165004 51 279 3.0 6.0 0.00 0.05 0.03 66 1013.0
20260508164003 51 250 2.0 7.0 0.00 0.05 0.03 62 1013.2
20260508163504 51 119 1.0 3.0 0.00 0.05 0.03 66 1013.2
20260508163003 50 267 2.0 6.0 0.00 0.05 0.03 63 1013.2
20260508162504 49 286 2.0 5.0 0.00 0.05 0.03 65 1013.3
20260508162003 49 299 3.0 6.0 0.00 0.05 0.03 65 1013.3
20260508161504 49 254 2.0 3.0 0.00 0.05 0.03 68 1013.3
20260508161004 49 255 3.0 8.0 0.00 0.05 0.03 69 1013.4
20260508160504 49 316 5.0 9.0 0.00 0.05 0.03 69 1013.4
20260508160004 49 315 6.0 8.0 0.00 0.05 0.03 64 1013.3
20260508155503 49 308 3.0 6.0 0.00 0.05 0.03 65 1013.3
20260508155004 50 304 4.0 8.0 0.00 0.05 0.03 66 1013.2
20260508154504 51 236 2.0 3.0 0.00 0.05 0.03 67 1013.2
20260508154003 50 315 2.0 6.0 0.00 0.05 0.03 68 1013.2
20260508153504 50 273 2.0 7.0 0.00 0.05 0.03 70 1013.3
20260508153004 50 301 2.0 6.0 0.00 0.05 0.03 68 1013.2
20260508152504 50 250 3.0 7.0 0.00 0.05 0.03 70 1013.3
20260508152004 49 278 1.0 3.0 0.00 0.05 0.03 78 1013.2
20260508151504 49 189 2.0 6.0 0.00 0.05 0.03 78 1013.3
20260508151003 48 232 0.0 6.0 0.00 0.05 0.03 81 1013.2
20260508145504 47 217 1.0 8.0 0.00 0.05 0.03 82 1013.1
20260508145004 46 243 4.0 7.0 0.00 0.05 0.03 79 1013.2
20260508144504 46 247 2.0 3.0 0.00 0.05 0.03 83 1013.1
20260508144003 46 268 1.0 3.0 0.00 0.05 0.03 83 1013.1
20260508143503 46 239 2.0 5.0 0.00 0.05 0.03 83 1013.0
20260508143004 46 218 2.0 3.0 0.00 0.05 0.03 88 1013.0
20260508142504 45 245 1.0 5.0 0.00 0.05 0.03 89 1013.1
20260508142004 44 134 1.0 3.0 0.00 0.05 0.03 90 1013.1
20260508141504 44 187 1.0 7.0 0.00 0.05 0.03 89 1013.0
20260508140004 44 279 1.0 5.0 0.01 0.05 0.03 92 1013.2
20260508135504 44 183 2.0 5.0 0.01 0.05 0.03 92 1013.1
20260508135003 43 229 1.0 3.0 0.01 0.05 0.03 92 1013.1
20260508134504 44 213 2.0 5.0 0.01 0.05 0.03 92 1013.1
20260508134004 44 206 1.0 3.0 0.01 0.05 0.03 93 1013.1
20260508133504 44 224 2.0 6.0 0.01 0.05 0.03 94 1013.1
20260508133004 44 209 2.0 7.0 0.01 0.05 0.03 94 1013.1
20260508132004 43 245 3.0 6.0 0.01 0.05 0.03 95 1013.1
20260508131504 42 250 2.0 9.0 0.01 0.05 0.03 95 1013.1
20260508131004 42 234 0.0 3.0 0.01 0.05 0.03 96 1013.1
20260508130504 43 299 2.0 6.0 0.01 0.05 0.03 96 1013.2
20260508130004 43 241 1.0 2.0 0.00 0.04 0.02 97 1013.1
20260508125504 42 224 0.0 3.0 0.00 0.04 0.02 97 1013.1
20260508125003 42 240 1.0 3.0 0.00 0.04 0.02 97 1013.0
20260508124504 42 285 1.0 3.0 0.00 0.04 0.02 97 1013.0
20260508124004 42 304 0.0 1.0 0.00 0.04 0.02 97 1012.9
20260508123504 42 194 0.0 1.0 0.00 0.04 0.02 97 1012.9
20260508123004 42 276 0.0 1.0 0.00 0.04 0.02 97 1012.9
20260508122504 42 285 1.0 1.0 0.00 0.04 0.02 97 1012.8
20260508122003 42 203 0.0 0.0 0.00 0.04 0.02 97 1012.8
20260508120504 42 152 0.0 0.0 0.00 0.04 0.02 97 1012.6
20260508120004 42 152 0.0 0.0 0.01 0.04 0.02 97 1012.5
20260508115505 41 152 0.0 0.0 0.01 0.04 0.02 97 1012.5
20260508115003 41 152 0.0 0.0 0.01 0.04 0.02 97 1012.4
20260508114504 41 152 0.0 0.0 0.01 0.04 0.02 97 1012.3
20260508114004 41 152 0.0 0.0 0.01 0.04 0.02 97 1012.3
20260508113504 41 152 0.0 0.0 0.01 0.04 0.02 97 1012.1
20260508113005 41 160 0.0 1.0 0.01 0.04 0.02 97 1011.9